Olympia, WA
on Monday, November 12, 2012

Monday
Previous Day Next Day
Daily Summary
 ActualAverageRecord
Temperature
Mean Temperature °F 44°F  
Max Temperature 53°F 51°F 61°F (1953)
Min Temperature 47°F 37°F 12°F (1955)
Degree Days
Heating Degree Days 15 21  
Month to date heating degree days 219 236  
Since 1 July heating degree days 997 1030  
Cooling Degree Days 0 0  
Month to date cooling degree days 0 0  
Year to date cooling degree days 82 106  
Moisture
Dew Point 46°F   
Average Humidity 92    
Maximum Humidity 100    
Minimum Humidity 83    
Precipitation
Precipitation 0.18 in 0.30 in 2.89 in (1949)
Month to date precipitation 2.20 3.17  
Year to date precipitation 42.90 37.08  
Wind
Wind Speed 7 mph   
Max Wind Speed 22 mph   
Max Gust Speed 28 mph   
Visibility 8 miles   
Events Rain   

Key: T is trace of precipitation, MM is missing value
Source: NWS Daily Summary
Time(PST)TemperatureDew PointHumidity Pressure Visibility Wind DirectionWind SpeedGust SpeedPrecipitationEvents Conditions
12:39 AM 46.4°F 44.6°F 93% 30.06 in 6.0 miles SSW 17.3 mph 26.5 mph 0.03 in Rain Light Rain
12:50 AM 46.4°F 44.6°F 93% 30.07 in 5.0 miles SSW 17.3 mph 25.3 mph 0.05 in Rain Light Rain
12:54 AM 46.4°F 44.6°F 93% 30.07 in 6.0 miles SSW 13.8 mph 25.3 mph N/A Rain Light Rain
1:23 AM 46.4°F 44.6°F 93% 30.07 in 8.0 miles SSW 16.1 mph 21.9 mph N/A Rain Light Rain
1:54 AM 46.9°F 44.1°F 90% 30.08 in 10.0 miles SSW 12.7 mph 23.0 mph 0.02 in   Overcast
2:54 AM 46.9°F 45.0°F 93% 30.09 in 8.0 miles SSW 9.2 mph - 0.01 in Rain Light Rain
3:54 AM 46.9°F 45.0°F 93% 30.09 in 4.0 miles SW 4.6 mph - 0.01 in Rain Light Rain
4:54 AM 46.9°F 46.0°F 97% 30.09 in 4.0 miles SW 4.6 mph - 0.03 in Rain Light Rain
5:51 AM 48.2°F 44.6°F 87% 30.09 in 10.0 miles SW 8.1 mph - 0.01 in   Overcast
5:54 AM 46.9°F 45.0°F 93% 30.09 in 10.0 miles SSW 9.2 mph - 0.01 in   Overcast
6:54 AM 48.0°F 46.0°F 93% 30.12 in 7.0 miles SW 8.1 mph - N/A   Overcast
7:54 AM 48.2°F 46.4°F 93% 30.13 in 10.0 miles SW 10.4 mph - N/A   Overcast
8:54 AM 48.9°F 46.0°F 90% 30.14 in 8.0 miles SSW 9.2 mph - N/A   Overcast
9:54 AM 50.0°F 46.9°F 89% 30.14 in 10.0 miles SSW 9.2 mph - N/A   Overcast
10:54 AM 51.1°F 46.9°F 86% 30.16 in 10.0 miles SSW 8.1 mph - N/A   Overcast
11:54 AM 52.0°F 46.9°F 83% 30.16 in 10.0 miles SSW 6.9 mph - N/A   Overcast
12:54 PM 51.1°F 48.0°F 89% 30.17 in 4.0 miles SSW 8.1 mph - 0.00 in Rain Light Rain
1:54 PM 52.0°F 48.9°F 89% 30.17 in 10.0 miles South 5.8 mph - 0.01 in   Overcast
2:20 PM 51.8°F 48.2°F 88% 30.16 in 10.0 miles South 9.2 mph - N/A   Overcast
2:54 PM 52.0°F 48.0°F 86% 30.17 in 10.0 miles South 6.9 mph - N/A   Mostly Cloudy
3:54 PM 51.1°F 48.0°F 89% 30.17 in 10.0 miles South 4.6 mph - N/A   Mostly Cloudy
4:54 PM 50.0°F 48.0°F 93% 30.18 in 8.0 miles SSW 5.8 mph - 0.00 in Rain Light Rain
5:54 PM 50.0°F 46.9°F 89% 30.19 in 10.0 miles SSW 5.8 mph - 0.00 in   Overcast
6:54 PM 48.9°F 48.0°F 97% 30.19 in 8.0 miles South 5.8 mph - 0.00 in   Overcast
7:54 PM 48.9°F 48.0°F 97% 30.21 in 8.0 miles SSW 4.6 mph - 0.02 in   Overcast
8:54 PM 46.9°F 46.0°F 97% 30.21 in 7.0 miles South 4.6 mph - 0.01 in   Mostly Cloudy
9:54 PM 48.0°F 46.9°F 96% 30.22 in 6.0 miles SSW 3.5 mph - N/A   Overcast
10:54 PM 48.0°F 46.9°F 96% 30.22 in 5.0 miles South 3.5 mph - 0.01 in   Overcast
11:54 PM 48.0°F 46.9°F 96% 30.22 in 8.0 miles SW 4.6 mph - 0.00 in   Overcast
Moon Phase
Nov. 12 Nov. 13 Nov. 20 Nov. 28 Dec. 06
Sunrise:07:11 AM (PST) Moon Rise:05:40 AM (PST)11/12
Sunset:04:39 PM (PST) Moon Set:03:50 PM (PST)11/12

Copyright © 2014 The Weather Underground, Inc.